Location: Etiwanda
(34.1261°N, 117.5237°W)
Time: 00:05:47
(UTC+00:00)

ARGOS - Pass Details

Date: 03 August 2024
Orbit: 818 x 834 km, 98.4° (Epoch: 10 September)

Event Time Altitude Azimuth Distance (km) Brightness Sun altitude
Rises 12:32:01 0° 14° (NNE) 3,373 7.0 -6.7°
Reaches altitude 10° 12:34:24 10° 16° (NNE) 2,433 6.2 -6.3°
Maximum altitude 12:39:47 78° 102° (ESE) 846 3.4 -5.3°
Drops below altitude 10° 12:45:08 10° 189° (S) 2,408 5.3 -4.3°
Sets 12:47:28 0° 191° (S) 3,335 6.0 -3.8°
